Weather History for Harlingen, TX

Change the Weather History Date:

Sunday, April 14, 2013

  Actual Average Record
Temperature  
Mean Temperature 80 °F 75 °F  
Max Temperature 93 °F 86 °F 97 °F (1922)
Min Temperature 67 °F 65 °F 40 °F (1980)
Degree Days  
Heating Degree Days 0 0  
Month to date heating degree days 0 7  
Since 1 July heating degree days 391 621  
Cooling Degree Days 15 10  
Month to date cooling degree days 128 129  
Year to date cooling degree days 483 424  
Growing Degree Days 30 (Base 50)    
Moisture  
Dew Point 67 °F    
Average Humidity 67    
Maximum Humidity 93    
Minimum Humidity 41    
Precipitation  
Precipitation T in 0.06 in 1.91 in (1989)
Month to date precipitation T 0.78  
Year to date precipitation 2.80 4.54  
Sea Level Pressure  
Sea Level Pressure 29.72 in    
Wind  
Wind Speed 9 mph (SE)    
Max Wind Speed 20 mph    
Max Gust Speed 25 mph    
Visibility 9 miles    
Events      
T = Trace of Precipitation, MM = Missing Value Source: NWS Daily Summary

Daily Weather History Graph

Daily Weather History Graph

Search for Another Location

Airport:

Trip Planner

Search our weather history database for the weather conditions in past years. The results will help you decide how hot, cold, wet, or windy it might be!

Date:

Astronomy

Apr. 14, 2013 Rise Set
Actual Time 7:08 AM CDT 7:53 PM CDT
Civil Twilight 6:44 AM CDT 8:17 PM CDT
Nautical Twilight 6:16 AM CDT 8:45 PM CDT
Astronomical Twilight 5:48 AM CDT 9:13 PM CDT
Moon 10:02 AM CDT (4/14) 11:51 PM CDT (4/14)
Length of Visible Light 13h 33m
Length of Day
12h 45m
Waxing Crescent, 17% of the Moon is Illuminated
Apr 14
Waxing Crescent
Apr 18
First Quarter
Apr 25
Full
May 2
Last Quarter
May 9
New

Hourly Weather History & Observations

Time (CDT) Temp. Heat Index Dew Point Humidity Pressure Visibility Wind Dir Wind Speed Gust Speed Precip Events Conditions
12:31 AM 71.6 °F - 66.2 °F 83% 29.76 in 10.0 mi ESE 8.1 mph - N/A   Overcast
12:52 AM 71.1 °F - 66.0 °F 84% 29.76 in 10.0 mi ESE 4.6 mph - N/A   Overcast
1:52 AM 70.0 °F - 66.0 °F 87% 29.76 in 10.0 mi ESE 3.5 mph - N/A   Overcast
2:52 AM 70.0 °F - 66.0 °F 87% 29.74 in 9.0 mi East 3.5 mph - N/A   Overcast
3:07 AM 69.8 °F - 66.2 °F 88% 29.73 in 9.0 mi East 4.6 mph - N/A   Overcast
3:52 AM 70.0 °F - 66.9 °F 90% 29.73 in 9.0 mi SE 4.6 mph - N/A   Overcast
4:52 AM 69.1 °F - 66.0 °F 90% 29.73 in 9.0 mi East 3.5 mph - 0.00 in   Mostly Cloudy
5:00 AM 69.8 °F - 66.2 °F 88% 29.72 in 9.0 mi Calm Calm - N/A   Mostly Cloudy
5:09 AM 69.8 °F - 66.2 °F 88% 29.72 in 9.0 mi NE 5.8 mph - N/A   Mostly Cloudy
5:52 AM 69.1 °F - 66.0 °F 90% 29.71 in 8.0 mi ESE 4.6 mph - N/A   Mostly Cloudy
6:24 AM 68.0 °F - 66.2 °F 94% 29.72 in 7.0 mi Calm Calm - N/A   Partly Cloudy
6:39 AM 66.2 °F - 64.4 °F 94% 29.71 in 5.0 mi Calm Calm - N/A   Mostly Cloudy
6:52 AM 66.9 °F - 64.9 °F 93% 29.72 in 5.0 mi Calm Calm - N/A   Overcast
7:29 AM 69.8 °F - 66.2 °F 88% 29.73 in 7.0 mi NE 3.5 mph - N/A   Overcast
7:52 AM 69.1 °F - 66.9 °F 93% 29.73 in 6.0 mi East 4.6 mph - N/A   Overcast
8:52 AM 72.0 °F - 68.0 °F 87% 29.75 in 9.0 mi ESE 4.6 mph - N/A   Overcast
9:10 AM 71.6 °F - 68.0 °F 88% 29.76 in 10.0 mi ESE 4.6 mph - N/A   Overcast
9:48 AM 73.4 °F - 69.8 °F 88% 29.77 in 10.0 mi SE 6.9 mph - N/A   Overcast
9:52 AM 75.0 °F - 69.1 °F 82% 29.77 in 10.0 mi SSE 6.9 mph - N/A   Overcast
10:52 AM 78.1 °F - 69.1 °F 74% 29.78 in 10.0 mi South 5.8 mph - N/A   Overcast
11:03 AM 78.8 °F - 69.8 °F 74% 29.77 in 10.0 mi South 5.8 mph - N/A   Overcast
11:16 AM 78.8 °F - 69.8 °F 74% 29.77 in 10.0 mi South 6.9 mph - N/A   Overcast
11:52 AM 81.0 °F 84.1 °F 69.1 °F 67% 29.77 in 10.0 mi South 9.2 mph - N/A   Overcast
12:52 PM 86.0 °F 88.8 °F 66.9 °F 53% 29.74 in 10.0 mi South 9.2 mph - N/A   Mostly Cloudy
1:52 PM 90.0 °F 92.8 °F 66.9 °F 46% 29.71 in 10.0 mi SSW 12.7 mph 19.6 mph N/A   Partly Cloudy
2:52 PM 89.1 °F 91.3 °F 66.0 °F 46% 29.68 in 10.0 mi South 10.4 mph 18.4 mph N/A   Partly Cloudy
3:52 PM 91.0 °F 93.8 °F 66.0 °F 44% 29.66 in 10.0 mi Variable 4.6 mph - N/A   Partly Cloudy
4:52 PM 93.0 °F 95.9 °F 66.0 °F 41% 29.64 in 10.0 mi South 12.7 mph 17.3 mph N/A   Partly Cloudy
5:42 PM 91.4 °F 95.4 °F 68.0 °F 46% 29.63 in 10.0 mi ESE 10.4 mph - N/A   Clear
5:52 PM 91.0 °F 95.2 °F 68.0 °F 47% 29.63 in 10.0 mi SE 18.4 mph 21.9 mph N/A   Partly Cloudy
6:52 PM 86.0 °F 89.4 °F 68.0 °F 55% 29.64 in 10.0 mi SE 18.4 mph - N/A   Clear
7:52 PM 80.1 °F 82.7 °F 68.0 °F 67% 29.66 in 10.0 mi SE 18.4 mph - N/A   Clear
8:52 PM 75.0 °F - 68.0 °F 79% 29.69 in 10.0 mi SE 17.3 mph - N/A   Clear
9:52 PM 73.0 °F - 68.0 °F 84% 29.72 in 10.0 mi SSE 13.8 mph - N/A   Clear
10:52 PM 72.0 °F - 68.0 °F 87% 29.74 in 9.0 mi SSE 11.5 mph - N/A   Clear
11:52 PM 71.1 °F - 68.0 °F 90% 29.74 in 8.0 mi SSE 8.1 mph - N/A   Clear